Location: Leipzig
(51.3397°N, 12.3731°E)
Time: 20:19:29
(UTC+02:00)

ISS - Visible Passes

Search period start: 15 May 2021 00:00
Search period end: 25 May 2021 00:00
Orbit: 417 x 422 km, 51.6° (Epoch: 15 May)

Date Brightness Start Highest point End Pass type
(mag) Time Alt. Az. Time Alt. Az. Time Alt. Az.
15 May -3.9 00:27:58 10° WSW 00:31:20 84° S 00:34:44 10° E visible
15 May -3.9 02:04:48 10° W 02:08:12 90° S 02:11:36 10° E visible
15 May -3.2 03:41:42 10° W 03:44:50 36° SSW 03:47:58 10° SE visible
15 May -2.5 22:04:49 10° SSW 22:07:28 22° SE 22:10:07 10° E visible
15 May -3.9 23:40:33 10° WSW 23:43:54 70° SSE 23:47:16 10° E visible
16 May -3.8 01:17:21 10° W 01:20:44 84° N 01:24:07 10° E visible
16 May -3.6 02:54:12 10° W 02:57:28 49° SSW 03:00:45 10° SE visible
16 May -1.9 04:32:03 10° WSW 04:33:42 13° SW 04:35:20 10° SSW visible
16 May -3.7 22:53:11 10° WSW 22:56:29 55° SSE 22:59:48 10° E visible
17 May -3.8 00:29:52 10° W 00:33:15 83° N 00:36:39 10° E visible
17 May -3.9 02:06:43 10° W 02:10:04 64° SSW 02:13:25 10° ESE visible
17 May -2.3 03:44:00 10° W 03:46:27 19° SW 03:48:53 10° S visible
17 May -3.4 22:05:54 10° SW 22:09:05 41° SSE 22:12:18 10° E visible
17 May -3.8 23:42:24 10° W 23:45:47 87° N 23:49:10 10° E visible
18 May -3.9 01:19:15 10° W 01:22:38 78° SSW 01:22:52 72° SE visible
18 May -3.9 22:54:56 10° WSW 22:58:19 84° SSE 23:01:42 10° E visible
19 May -3.9 00:31:47 10° W 00:35:10 90° SSE 00:36:26 36° E visible
19 May -1.5 02:08:41 10° W 02:09:22 15° W 02:09:22 15° W visible
19 May -3.8 22:07:30 10° WSW 22:10:51 71° SSE 22:14:13 10° E visible
19 May -3.8 23:44:18 10° W 23:47:41 84° N 23:50:15 16° E visible
20 May -2.6 01:21:08 10° W 01:23:10 31° W 01:23:10 31° W visible
20 May -3.7 22:56:48 10° W 23:00:12 83° N 23:03:35 10° E visible
21 May -3.9 00:33:39 10° W 00:37:00 64° SSW 00:37:05 63° S visible
21 May -3.7 22:09:19 10° W 22:12:42 87° N 22:16:05 10° E visible
21 May -3.9 23:46:11 10° W 23:49:33 78° SSW 23:51:01 31° ESE visible
22 May -1.5 01:23:11 10° W 01:23:57 15° W 01:23:57 15° W visible
22 May -3.8 22:58:41 10° W 23:02:04 90° SSW 23:05:00 13° E visible
23 May -2.7 00:35:35 10° W 00:37:56 31° WSW 00:37:56 31° WSW visible
23 May -3.7 22:11:12 10° W 22:14:34 84° N 22:17:57 10° E visible
23 May -3.5 23:48:02 10° W 23:51:18 48° SSW 23:51:56 42° SSE visible
24 May -3.7 23:00:31 10° W 23:03:52 63° SSW 23:05:58 21° ESE visible
